Location: Munkebjergskolens Observatorium
(55.3864°N, 10.3987°E)
Time: 22:58:14
(UTC+01:00)

DELTA 1 DEB - Pass Details

Date: 06 December 2023
Orbit: 783 x 826 km, 98.9° (Epoch: 04 March)

Event Time Altitude Azimuth Distance (km) Brightness Sun altitude
Rises 18:16:49 0° 178° (S) 3,292 ? -19.4°
Reaches altitude 10° 18:19:12 10° 183° (S) 2,373 ? -19.7°
Maximum altitude 18:24:18 52° 259° (W) 1,008 ? -20.4°
Drops below altitude 10° 18:29:31 10° 336° (NNW) 2,418 ? -21.2°
Sets 18:31:58 0° 342° (NNW) 3,361 ? -21.5°
